INMARSAT 6-F1

Last updated on Sun Apr 12 2026 00:02:56 GMT+0000 (Coordinated Universal Time)

1 50319U 21128A 26101.32475564 -.00000170 00000+0 00000+0 0 9995 2 50319 0.0193 227.9584 0000399 269.5551 262.6941 1.00271594 15582
UTC large
Height (km)
Speed (km/s)
/
Latitude / Longitude
Inclination (degrees)
Orbital Period (minutes)
Azimuth
Elevation
Range (km)
Doppler Factor

Next 0 passes for location: London (51.5072 / 0.1276)

Sorry there are no passes over London.
INMARSAT 6-F1